Weather History for Springfield, MO

Change the Weather History Date:

Wednesday, February 19, 2014

  Actual Average Record
Temperature  
Mean Temperature 46 °F 38 °F  
Max Temperature 63 °F 49 °F 71 °F (2004)
Min Temperature 29 °F 27 °F -4 °F (1978)
Degree Days  
Heating Degree Days 19 27  
Month to date heating degree days 686 554  
Since 1 July heating degree days 3715 3367  
Cooling Degree Days 0 0  
Month to date cooling degree days 0 0  
Year to date cooling degree days 0 0  
Moisture  
Dew Point 29 °F    
Average Humidity 49    
Maximum Humidity 78    
Minimum Humidity 20    
Precipitation  
Precipitation T in 0.10 in 2.07 in (1955)
Month to date precipitation 0.34 1.62  
Year to date precipitation 1.63 4.09  
Snow  
Snow 0.00 in - - ()
Month to date snowfall 4.3  
Since 1 July snowfall 27.3  
Snow Depth 0.00 in    
Sea Level Pressure  
Sea Level Pressure 29.85 in    
Wind  
Wind Speed 11 mph (SE)    
Max Wind Speed 26 mph    
Max Gust Speed 36 mph    
Visibility 10 miles    
Events Rain    
T = Trace of Precipitation, MM = Missing Value Source: NWS Daily Summary

Daily Weather History Graph

Daily Weather History Graph

Search for Another Location

Airport:

Trip Planner

Search our weather history database for the weather conditions in past years. The results will help you decide how hot, cold, wet, or windy it might be!

Date:

Astronomy

Feb. 19, 2014 Rise Set
Actual Time 6:57 AM CST 5:57 PM CST
Civil Twilight 6:31 AM CST 6:24 PM CST
Nautical Twilight 6:00 AM CST 6:54 PM CST
Astronomical Twilight 5:30 AM CST 7:24 PM CST
Moon 10:44 PM CST (2/19) 9:10 AM CST (2/19)
Length of Visible Light 11h 52m
Length of Day
10h 59m
Waning Gibbous, 79% of the Moon is Illuminated
Feb 19
Waning Gibbous
Feb 22
Last Quarter
Mar 1
New
Mar 8
First Quarter
Mar 16
Full

Hourly Weather History & Observations

Time (CST) Temp. Windchill Dew Point Humidity Pressure Visibility Wind Dir Wind Speed Gust Speed Precip Events Conditions
12:52 AM 46.0 °F 40.6 °F 30.0 °F 54% 29.96 in 10.0 mi North 11.5 mph - N/A   Clear
1:52 AM 37.9 °F 32.7 °F 27.0 °F 65% 29.98 in 10.0 mi NNW 6.9 mph - N/A   Clear
2:52 AM 35.1 °F - 26.1 °F 70% 29.96 in 10.0 mi Calm Calm - N/A   Clear
3:52 AM 33.1 °F - 25.0 °F 72% 29.95 in 10.0 mi Calm Calm - N/A   Clear
4:52 AM 30.9 °F - 25.0 °F 79% 29.96 in 10.0 mi Calm Calm - N/A   Clear
5:52 AM 33.1 °F 30.0 °F 27.0 °F 78% 30.00 in 10.0 mi South 3.5 mph - N/A   Clear
6:52 AM 37.9 °F 34.4 °F 28.9 °F 70% 30.02 in 10.0 mi SSE 4.6 mph - N/A   Clear
7:52 AM 37.9 °F 33.5 °F 30.9 °F 76% 30.01 in 10.0 mi ESE 5.8 mph - N/A   Clear
8:52 AM 43.0 °F 41.3 °F 33.1 °F 68% 30.04 in 10.0 mi South 3.5 mph - N/A   Clear
9:52 AM 50.0 °F - 30.9 °F 48% 30.02 in 10.0 mi SE 3.5 mph - N/A   Clear
10:52 AM 54.0 °F - 27.0 °F 35% 30.01 in 10.0 mi SE 8.1 mph - N/A   Clear
11:52 AM 57.0 °F - 23.0 °F 27% 29.95 in 10.0 mi ESE 12.7 mph - N/A   Clear
12:52 PM 60.1 °F - 19.0 °F 20% 29.89 in 10.0 mi ESE 16.1 mph - N/A   Clear
1:52 PM 61.0 °F - 19.9 °F 21% 29.87 in 10.0 mi SE 15.0 mph - N/A   Clear
2:52 PM 61.0 °F - 21.0 °F 21% 29.86 in 10.0 mi SSE 12.7 mph - N/A   Clear
3:52 PM 60.1 °F - 25.0 °F 26% 29.82 in 10.0 mi SSE 11.5 mph - 0.00 in Rain Light Rain
4:52 PM 59.0 °F - 25.0 °F 27% 29.79 in 10.0 mi ESE 17.3 mph - 0.00 in   Mostly Cloudy
5:52 PM 59.0 °F - 28.0 °F 31% 29.76 in 10.0 mi SE 19.6 mph 27.6 mph N/A   Mostly Cloudy
6:52 PM 57.9 °F - 27.0 °F 31% 29.73 in 10.0 mi SE 20.7 mph 31.1 mph N/A   Mostly Cloudy
7:52 PM 55.9 °F - 28.9 °F 36% 29.72 in 10.0 mi SSE 19.6 mph 28.8 mph N/A   Mostly Cloudy
8:52 PM 55.9 °F - 30.9 °F 39% 29.71 in 10.0 mi SSE 17.3 mph 29.9 mph N/A   Mostly Cloudy
9:24 PM 55.9 °F - 33.1 °F 42% 29.72 in 10.0 mi SSE 16.1 mph - N/A   Overcast
9:52 PM 55.9 °F - 35.1 °F 45% 29.71 in 10.0 mi SSE 16.1 mph 25.3 mph N/A   Overcast
10:43 PM 55.0 °F - 37.9 °F 53% 29.67 in 10.0 mi SSE 23.0 mph 29.9 mph N/A   Overcast
10:52 PM 55.0 °F - 37.9 °F 53% 29.66 in 10.0 mi SSE 23.0 mph 32.2 mph N/A   Overcast
11:38 PM 55.0 °F - 39.9 °F 57% 29.64 in 10.0 mi SSE 20.7 mph - N/A   Overcast
11:52 PM 55.0 °F - 41.0 °F 59% 29.63 in 10.0 mi SSE 19.6 mph - N/A   Overcast